Tracking 29892 objects as of 21-Nov-2024
HD Live streaming from Space Station
objects crossing your sky now

STARLINK-30919

Track STARLINK-30919 now!
10-day predictions
STARLINK-30919 is classified as:


NORAD ID: 58411
Int'l Code: 2023-180K
Perigee: 565.4 km
Apogee: 567.1 km
Inclination: 43.0 °
Period: 95.8 minutes
Semi major axis: 6937 km
RCS: Unknown
Launch date: November 22, 2023
Source: United States (US)
Launch site: AIR FORCE EASTERN TEST RANGE (AFETR)
Your satellite tracking list
Your tracking list is empty




NASA's NSSDC Master Catalog

Two Line Element Set (TLE):
1 58411U 23180K   24325.74488614  .00000829  00000-0  76453-4 0  9999
2 58411  43.0044 110.2016 0001239 288.3453  71.7254 15.02536181 56206
Source of the keplerian elements: AFSPC